Погода в Марганце

Украина / Днепропетровская область     47°38′47″N   34°36′15″E
темп.,
°C
ветер,
м/с
пор.,
м/с
влажн.,
%
обл.,
%
осадки,
мм/ч
давл.,
гПа
погр.,
м
11 мая, вт
вт1100:00+10сз71565100 0.0 1017630
03:00+10ссз91678100 0.5 1016732
06:00+10ссз8147999 0.0 1015556
09:00+11с71378100 0.0 1015599
12:00+14ссв71077100 0.1 10151333
15:00+13всв797357 0.6 10151057
18:00+13св695615 0.0 10161424
21:00+9ссв410758 0.0 1016303
12 мая, ср
ср1200:00+7с498796 0.0 1015344
03:00+8св588495 0.1 1014632
06:00+7св499150 0.0 1015427
09:00+10всв676855 0.1 10151046
12:00+13всв335699 0.2 10141609
15:00+13св115516 0.6 10141232
18:00+14ю225122 0.1 10131247
21:00+9юв22715 0.1 101418
13 мая, чт
чт1300:00+9ююв3377100 0.0 101431
03:00+7юв22875 0.0 101412
06:00+8всв33872 0.0 101452
09:00+14вюв45591 0.0 1014544
12:00+18юв445010 0.0 10131136
15:00+21юв3446100 0.0 10121239
18:00+21в2553100 0.0 1011617
21:00+16юв347362 0.0 101159
14 мая, пт
пт1400:00+14вюв468953 0.0 101195
03:00+14юв349484 0.0 101062
06:00+13ю229367 0.0 101027
09:00+19ююз236580 0.0 1011472
12:00+23ююз3345100 0.0 1011825
15:00+24ююз3443100 0.0 1011965
18:00+24юз2351100 0.0 1010186
21:00+18зсз1159100 0.0 101011
15 мая, сб
сб1500:00+17ююв226923 0.0 101111
03:00+13з348831 0.1 101055
06:00+13юз37880 0.0 1011173
09:00+18юз57715 0.0 1012578
12:00+22юз8105520 0.0 10121657
15:00+23ююз685053 0.1 10111587
18:00
21:00+16сз33780 0.0 101428